{"data":{"norad_id":64445,"epoch":"2026-05-25T03:14:15.328896Z","epoch_age_seconds":67373,"freshness":"FRESH","line1":"1 64445U 25130H   26145.13489964  .00016123  00000+0  55509-3 0  9995","line2":"2 64445  53.1580  93.7093 0001792  86.3896 273.7310 15.30212188 52402","mean_motion":15.30212188,"eccentricity":0.0001792,"inclination_deg":53.158,"raan_deg":93.7093,"arg_perigee_deg":86.3896,"mean_anomaly_deg":273.731,"bstar":0.00055509,"rev_number":5240,"period_min":94.10459616598,"perigee_km":473.95056432018,"apogee_km":476.40679265936,"semimajor_km":6853.3156784898,"source":"CELESTRAK","updated_at":"2026-05-25T13:38:20.448149Z"}}